User: anonymous   Login
Location: Unspecified
(0.0000°N, 0.0000°E)
Time: 11:28:00
(UTC+02:00)
Language:

Cosmos 773 Rocket - Orbit

View from above orbital plane
View from above orbital plane
View from above satellite
View from above satellite

Ground track
Ground track

The orbit data is extracted from the following two-line orbital elements,

1 08344U 75094B   15185.03424971  .00000028  00000-0  17431-4 0  9994
2 08344 074.0573 001.4524 0021030 081.5336 278.8201 14.38975938 82965
Epoch (UTC): 04 July 2015 00:49:19
Eccentricity: 0.0021030
inclination: 74.0573°
perigee height: 747 km
apogee height: 777 km
right ascension of ascending node: 1.4524°
argument of perigee: 81.5336°
revolutions per day: 14.38975938
mean anomaly at epoch: 278.8201°
orbit number at epoch: 8296

The dashed part of the orbit path shows where the satellite is in the earth's shadow,  

DLR